Moses Lake, WA

9:44 AM PDT on May 22, 2018 (GMT -0700)
Grant County International

Weather History for KMWH - December, 2013

Change the Weather History Date:

Saturday, December 28, 2013

  Actual Average Record
Temperature  
Mean Temperature 27 °F 28 °F  
Max Temperature 28 °F 34 °F 64 °F (1998)
Min Temperature 25 °F 22 °F -11 °F (1996)
Degree Days  
Heating Degree Days 38 37  
Month to date heating degree days 1141 1012  
Since 1 July heating degree days 2576 2473  
Cooling Degree Days 0 0  
Month to date cooling degree days 0 0  
Year to date cooling degree days 948 615  
Moisture  
Dew Point 25 °F    
Average Humidity 96    
Maximum Humidity 100    
Minimum Humidity 92    
Precipitation  
Precipitation T in 0.06 in 0.18 in (2002)
Month to date precipitation 0.02 1.28  
Year to date precipitation 5.88 8.95  
Sea Level Pressure  
Sea Level Pressure 30.46 in    
Wind  
Wind Speed 2 mph (SE)    
Max Wind Speed 8 mph    
Max Gust Speed 9 mph    
Visibility 1 miles    
Events Fog , Snow    
T = Trace of Precipitation, MM = Missing Value Source: NWS Daily Summary

Daily Weather History Graph

Daily Weather History Graph

Search for Another Location

Airport or City:

Astronomy

Dec. 28, 2013 Rise Set
Actual Time 7:43 AM PST 4:14 PM PST
Civil Twilight 7:07 AM PST 4:50 PM PST
Nautical Twilight 6:29 AM PST 5:29 PM PST
Astronomical Twilight 5:51 AM PST 6:06 PM PST
Moon 3:17 AM PST (12/28) 1:16 PM PST (12/28)
Length of Visible Light 9h 42m
Length of Day
8h 31m
Waning Crescent, 18% of the Moon is Illuminated
Dec 28
Waning Crescent
Jan 1
New
Jan 7
First Quarter
Jan 15
Full
Jan 23
Last Quarter

Hourly Weather History & Observations

Time (PST) Temp. Windchill Dew Point Humidity Pressure Visibility Wind Dir Wind Speed Gust Speed Precip Events Conditions
12:00 AM 24.8 °F 17.9 °F 24.8 °F 100% 30.27 in 1.0 mi NE 5.8 mph - N/A   Mist
12:12 AM 24.8 °F 17.9 °F 24.8 °F 100% 30.26 in 0.8 mi NE 5.8 mph - N/A   Mist
12:52 AM 26.1 °F 20.5 °F 24.1 °F 92% 30.32 in 0.5 mi ENE 4.6 mph - 0.00 in Fog Light Freezing Fog
1:41 AM 26.6 °F - 24.8 °F 93% 30.31 in 1.0 mi Calm Calm - N/A   Mist
1:52 AM 26.1 °F 21.9 °F 25.0 °F 96% 30.35 in 1.0 mi SE 3.5 mph - N/A   Mist
2:02 AM 26.6 °F 22.6 °F 24.8 °F 93% 30.31 in 0.8 mi South 3.5 mph - N/A   Mist
2:52 AM 27.0 °F 21.6 °F 26.1 °F 96% 30.38 in 0.8 mi South 4.6 mph - N/A   Mist
3:52 AM 26.1 °F 21.9 °F 25.0 °F 96% 30.40 in 0.8 mi SSE 3.5 mph - N/A   Mist
4:52 AM 26.1 °F 20.5 °F 24.1 °F 92% 30.41 in 0.8 mi WSW 4.6 mph - N/A   Mist
5:06 AM 24.8 °F 16.9 °F 23.0 °F 93% 30.37 in 1.2 mi WSW 6.9 mph - N/A   Overcast
5:24 AM 24.8 °F 19.1 °F 23.0 °F 93% 30.38 in 0.8 mi SW 4.6 mph - N/A   Mist
5:52 AM 25.0 °F 20.7 °F 23.0 °F 92% 30.44 in 0.5 mi South 3.5 mph - N/A Fog Light Freezing Fog
6:52 AM 25.0 °F - 24.1 °F 96% 30.46 in 0.5 mi Calm Calm - N/A Fog Light Freezing Fog
7:52 AM 26.1 °F - 23.0 °F 88% 30.48 in 0.2 mi Calm Calm - 0.00 in Fog , Snow Light Snow
8:14 AM 26.6 °F 21.2 °F 24.8 °F 93% 30.44 in 0.8 mi North 4.6 mph - 0.00 in   Mist
8:17 AM 26.6 °F 22.6 °F 24.8 °F 93% 30.44 in 2.0 mi North 3.5 mph - 0.00 in   Overcast
8:28 AM 26.6 °F 22.6 °F 24.8 °F 93% 30.45 in 1.2 mi NE 3.5 mph - 0.00 in   Overcast
8:48 AM 26.6 °F 22.6 °F 24.8 °F 93% 30.46 in 0.5 mi North 3.5 mph - 0.00 in Fog Light Freezing Fog
8:52 AM 27.0 °F 21.6 °F 25.0 °F 92% 30.52 in 0.5 mi North 4.6 mph - 0.00 in Fog Light Freezing Fog
9:52 AM 26.1 °F 21.9 °F 25.0 °F 96% 30.52 in 0.5 mi Variable 3.5 mph - N/A Fog Light Freezing Fog
10:05 AM 26.6 °F 21.2 °F 24.8 °F 93% 30.48 in 0.2 mi North 4.6 mph - N/A Fog Light Freezing Fog
10:34 AM 26.6 °F 21.2 °F 24.8 °F 93% 30.48 in 0.5 mi NNW 4.6 mph - N/A Fog Light Freezing Fog
10:52 AM 27.0 °F 23.0 °F 25.0 °F 92% 30.53 in 0.5 mi NW 3.5 mph - N/A Fog Light Freezing Fog
11:13 AM 26.6 °F 22.6 °F 26.6 °F 100% 30.48 in 0.2 mi North 3.5 mph - N/A Fog Light Freezing Fog
11:22 AM 26.6 °F 22.6 °F 26.6 °F 100% 30.47 in 0.5 mi West 3.5 mph - N/A Fog Light Freezing Fog
11:52 AM 28.0 °F - 26.1 °F 92% 30.52 in 0.5 mi Calm Calm - N/A Fog Light Freezing Fog
12:04 PM 26.6 °F 22.6 °F 26.6 °F 100% 30.47 in 0.2 mi NNW 3.5 mph - N/A Fog Light Freezing Fog
12:16 PM 26.6 °F - 26.6 °F 100% 30.46 in 0.5 mi Calm Calm - N/A Fog Light Freezing Fog
12:42 PM 26.6 °F - 26.6 °F 100% 30.45 in 0.2 mi Calm Calm - N/A Fog Light Freezing Fog
12:52 PM 27.0 °F - 26.1 °F 96% 30.50 in 0.2 mi Calm Calm - N/A Fog Light Freezing Fog
1:16 PM 28.4 °F - 26.6 °F 93% 30.46 in 0.5 mi Calm Calm - N/A Fog Light Freezing Fog
1:24 PM 28.4 °F - 26.6 °F 93% 30.46 in 0.2 mi Calm Calm - N/A Fog Light Freezing Fog
1:45 PM 28.4 °F - 26.6 °F 93% 30.45 in 0.5 mi Calm Calm - N/A Fog Light Freezing Fog
1:52 PM 28.0 °F - 26.1 °F 92% 30.50 in 0.8 mi Calm Calm - N/A   Mist
2:37 PM 26.6 °F 22.6 °F 26.6 °F 100% 30.45 in 0.2 mi SSE 3.5 mph - N/A Fog Light Freezing Fog
2:52 PM 27.0 °F 23.0 °F 26.1 °F 96% 30.50 in 0.2 mi SSE 3.5 mph - N/A Fog Light Freezing Fog
3:52 PM 27.0 °F 23.0 °F 25.0 °F 92% 30.50 in 0.2 mi SE 3.5 mph - N/A Fog Light Freezing Fog
4:17 PM 26.6 °F 21.2 °F 24.8 °F 93% 30.46 in 0.8 mi SSE 4.6 mph - N/A   Mist
4:20 PM 26.6 °F 22.6 °F 24.8 °F 93% 30.46 in 2.5 mi SSE 3.5 mph - N/A   Overcast
4:43 PM 26.6 °F - 24.8 °F 93% 30.47 in 1.8 mi Calm Calm - N/A   Overcast
4:52 PM 26.1 °F - 25.0 °F 96% 30.52 in 1.5 mi Calm Calm - N/A   Overcast
5:40 PM 26.6 °F - 24.8 °F 93% 30.48 in 0.8 mi Calm Calm - N/A   Mist
5:52 PM 27.0 °F - 25.0 °F 92% 30.54 in 1.5 mi Calm Calm - N/A   Overcast
5:56 PM 26.6 °F - 24.8 °F 93% 30.48 in 3.0 mi Calm Calm - N/A   Overcast
6:12 PM 26.6 °F 22.6 °F 26.6 °F 100% 30.48 in 1.8 mi South 3.5 mph - N/A   Overcast
6:35 PM 26.6 °F - 24.8 °F 93% 30.48 in 2.5 mi Calm Calm - N/A   Overcast
6:52 PM 27.0 °F - 25.0 °F 92% 30.53 in 1.2 mi Calm Calm - N/A   Overcast
7:09 PM 26.6 °F - 26.6 °F 100% 30.48 in 0.8 mi Calm Calm - N/A   Mist
7:52 PM 27.0 °F - 25.0 °F 92% 30.53 in 0.5 mi Calm Calm - N/A Fog Light Freezing Fog
8:52 PM 27.0 °F - 25.0 °F 92% 30.54 in 1.0 mi Calm Calm - 0.00 in Snow Light Snow
9:52 PM 26.1 °F - 25.0 °F 96% 30.55 in 0.8 mi Calm Calm - 0.00 in   Mist
10:10 PM 26.6 °F - 26.6 °F 100% 30.50 in 1.5 mi Calm Calm - N/A   Overcast
10:15 PM 26.6 °F - 24.8 °F 93% 30.49 in 3.0 mi Calm Calm - N/A   Overcast
10:31 PM 26.6 °F - 24.8 °F 93% 30.49 in 1.8 mi Calm Calm - 0.00 in Snow Light Snow
10:52 PM 26.1 °F - 25.0 °F 96% 30.54 in 1.0 mi Calm Calm - 0.00 in   Mist
11:00 PM 26.6 °F 21.2 °F 24.8 °F 93% 30.49 in 0.8 mi ESE 4.6 mph - N/A   Mist
11:10 PM 26.6 °F - 24.8 °F 93% 30.49 in 1.0 mi Calm Calm - N/A   Mist
11:21 PM 26.6 °F - 24.8 °F 93% 30.49 in 3.0 mi Calm Calm - N/A   Overcast
11:52 PM 26.1 °F 21.9 °F 24.1 °F 92% 30.53 in 3.0 mi SSE 3.5 mph - N/A   Overcast
11:58 PM 26.6 °F - 24.8 °F 93% 30.47 in 1.8 mi Calm Calm - N/A   Overcast